Location: Newark
(52.2090°N, 4.1550°W)
Time: 10:47:39
(UTC+00:00)

Transit 4A - Pass Details

Date: 01 November 2019
Orbit: 868 x 976 km, 66.8° (Epoch: 13 November)

Event Time Altitude Azimuth Distance (km) Brightness Sun altitude
Exits shadow 05:59:14 12° 302° (WNW) 2,510 9.6 -11.4°
Maximum altitude 06:03:21 22° 348° (NNW) 1,914 9.4 -10.8°
Drops below altitude 10° 06:07:58 10° 38° (NE) 2,605 10.6 -10.1°
Sets 06:11:05 0° 54° (NE) 3,527 11.6 -9.7°
